Location: *
(34.8620°S, 39.3380°E)
Time: 23:24:46
(UTC+00:00)

SAOCOM 1-B - Pass Details

Date: 04 June 2022
Orbit: 621 x 623 km, 97.9° (Epoch: 01 July)

Event Time Altitude Azimuth Distance (km) Brightness Sun altitude
Rises 15:36:41 0° 344° (NNW) 2,890 ? -15.7°
Reaches altitude 10° 15:39:11 10° 330° (NNW) 1,994 ? -16.2°
Maximum altitude 15:42:43 24° 276° (W) 1,306 ? -16.9°
Drops below altitude 10° 15:46:17 10° 221° (SW) 2,019 ? -17.6°
Sets 15:48:52 0° 207° (SSW) 2,935 ? -18.1°
